AAL3316 KMIA-TNCM

Flight info

Callsign AAL3316
Flight time N/A
Altitude 37000
Route KLADA2 BITAC Y290 SLUGO
Aircraft B738/M-V/N

Departure

Time 2026-05-06 18:52
Airport Miami International Airport (KMIA)

Arrival

Time N/A
Airport Princess Juliana International Airport (TNCM)
Time Latitude Longitude Altitude Speed Heading
2026-05-06 18:23 25.79787 -80.27773 16 ft 0 kts 179°
2026-05-06 18:40 25.79790 -80.27773 16 ft 1 kts 179°
2026-05-06 18:40 25.79808 -80.27773 16 ft 3 kts 180°
2026-05-06 18:41 25.79828 -80.27773 16 ft 3 kts 183°
2026-05-06 18:41 25.79848 -80.27771 16 ft 3 kts 188°
2026-05-06 18:41 25.79868 -80.27767 16 ft 3 kts 201°
2026-05-06 18:41 25.79884 -80.27757 16 ft 3 kts 234°
2026-05-06 18:42 25.79889 -80.27745 16 ft 1 kts 265°
2026-05-06 18:42 25.79889 -80.27742 16 ft 0 kts 265°
2026-05-06 18:43 25.79889 -80.27749 16 ft 3 kts 265°
2026-05-06 18:44 25.79886 -80.27793 16 ft 6 kts 267°
2026-05-06 18:44 25.79885 -80.27841 16 ft 6 kts 276°
2026-05-06 18:44 25.79910 -80.27878 16 ft 6 kts 324°
2026-05-06 18:44 25.79948 -80.27893 16 ft 6 kts 340°
2026-05-06 18:45 25.79969 -80.27928 16 ft 6 kts 276°
2026-05-06 18:45 25.79967 -80.27992 16 ft 12 kts 267°
2026-05-06 18:45 25.79962 -80.28103 16 ft 17 kts 267°
2026-05-06 18:45 25.79957 -80.28235 16 ft 17 kts 266°
2026-05-06 18:46 25.79951 -80.28367 16 ft 16 kts 268°
2026-05-06 18:46 25.79946 -80.28488 16 ft 15 kts 267°
2026-05-06 18:46 25.79942 -80.28602 16 ft 14 kts 267°
2026-05-06 18:46 25.79937 -80.28709 16 ft 13 kts 267°
2026-05-06 18:47 25.79933 -80.28808 16 ft 13 kts 267°
2026-05-06 18:47 25.79929 -80.28904 16 ft 12 kts 268°
2026-05-06 18:47 25.79925 -80.28998 16 ft 12 kts 267°
2026-05-06 18:47 25.79921 -80.29086 16 ft 11 kts 267°
2026-05-06 18:48 25.79918 -80.29171 16 ft 11 kts 267°
2026-05-06 18:48 25.79914 -80.29254 16 ft 10 kts 267°
2026-05-06 18:48 25.79911 -80.29331 16 ft 10 kts 267°
2026-05-06 18:48 25.79909 -80.29406 16 ft 10 kts 268°
2026-05-06 18:49 25.79906 -80.29478 16 ft 9 kts 268°
2026-05-06 18:49 25.79903 -80.29548 16 ft 9 kts 267°
2026-05-06 18:49 25.79900 -80.29615 16 ft 10 kts 267°
2026-05-06 18:49 25.79906 -80.29707 16 ft 13 kts 285°
2026-05-06 18:50 25.79965 -80.29758 16 ft 6 kts 356°
2026-05-06 18:50 25.79986 -80.29760 16 ft 1 kts 356°
2026-05-06 18:50 25.79990 -80.29760 16 ft 1 kts 356°
2026-05-06 18:50 25.79992 -80.29760 16 ft 0 kts 356°
2026-05-06 18:51 25.80011 -80.29761 16 ft 8 kts 356°
2026-05-06 18:51 25.80084 -80.29735 16 ft 13 kts 65°
2026-05-06 18:51 25.80093 -80.29623 16 ft 21 kts 88°
2026-05-06 18:51 25.80108 -80.29268 16 ft 77 kts 88°
2026-05-06 18:52 25.80143 -80.28440 16 ft 134 kts 88°
2026-05-06 18:52 25.80182 -80.27291 332 ft 155 kts 89°
2026-05-06 18:52 25.80254 -80.26154 1315 ft 135 kts 89°
2026-05-06 18:52 25.80111 -80.25176 1972 ft 129 kts 111°
2026-05-06 18:53 25.79760 -80.24264 2442 ft 131 kts 116°
2026-05-06 18:53 25.79324 -80.23306 2750 ft 148 kts 118°
2026-05-06 18:53 25.78808 -80.22225 3072 ft 169 kts 118°
2026-05-06 18:53 25.78224 -80.20999 3401 ft 190 kts 118°
2026-05-06 18:54 25.77565 -80.19619 3701 ft 212 kts 118°
2026-05-06 18:54 25.76840 -80.18096 3959 ft 236 kts 118°
2026-05-06 18:54 25.76022 -80.16440 4413 ft 252 kts 119°
2026-05-06 18:54 25.75156 -80.14692 4964 ft 264 kts 119°
2026-05-06 18:55 25.74263 -80.12887 5689 ft 269 kts 119°
2026-05-06 18:55 25.73374 -80.11022 6419 ft 274 kts 115°
2026-05-06 18:55 25.72641 -80.09054 7139 ft 278 kts 111°
2026-05-06 18:55 25.71976 -80.07023 7857 ft 282 kts 110°
2026-05-06 18:56 25.71314 -80.04965 8554 ft 286 kts 110°
2026-05-06 18:56 25.70652 -80.02899 9227 ft 289 kts 110°
2026-05-06 18:56 25.69973 -80.00791 9892 ft 293 kts 110°
2026-05-06 18:56 25.69274 -79.98650 10544 ft 299 kts 110°
2026-05-06 18:57 25.68546 -79.96435 10951 ft 313 kts 111°
2026-05-06 18:57 25.67773 -79.94101 11188 ft 333 kts 111°
2026-05-06 18:57 25.66952 -79.91631 11423 ft 351 kts 111°
2026-05-06 18:57 25.66084 -79.89027 11653 ft 368 kts 111°
2026-05-06 18:58 25.65185 -79.86332 11985 ft 381 kts 111°
2026-05-06 18:58 25.64246 -79.83522 12504 ft 387 kts 111°
2026-05-06 18:58 25.63302 -79.80695 13035 ft 393 kts 111°
2026-05-06 18:58 25.62352 -79.77853 13585 ft 398 kts 111°
2026-05-06 18:59 25.61709 -79.75925 13928 ft 402 kts 111°
2026-05-06 18:59 25.59387 -79.68988 15207 ft 415 kts 111°
2026-05-06 18:59 25.58452 -79.66347 15670 ft 420 kts 112°
2026-05-06 19:00 25.57336 -79.63344 16187 ft 425 kts 113°
2026-05-06 19:00 25.56201 -79.60288 16723 ft 430 kts 113°
2026-05-06 19:00 25.55063 -79.57216 17204 ft 435 kts 112°
2026-05-06 19:00 25.54301 -79.55154 17531 ft 438 kts 112°
2026-05-06 19:01 25.52751 -79.50951 18194 ft 444 kts 112°
2026-05-06 19:01 25.51578 -79.47771 18710 ft 447 kts 112°
2026-05-06 19:01 25.50402 -79.44579 19244 ft 449 kts 112°
2026-05-06 19:01 25.49218 -79.41366 19757 ft 452 kts 112°
2026-05-06 19:02 25.48023 -79.38125 20244 ft 455 kts 112°
2026-05-06 19:02 25.46826 -79.34882 20701 ft 458 kts 112°
2026-05-06 19:02 25.45636 -79.31605 21174 ft 460 kts 112°
2026-05-06 19:02 25.44436 -79.28305 21619 ft 463 kts 112°
2026-05-06 19:03 25.43223 -79.24999 22035 ft 465 kts 112°
2026-05-06 19:03 25.41998 -79.21669 22447 ft 468 kts 112°
2026-05-06 19:03 25.40767 -79.18329 22845 ft 471 kts 112°
2026-05-06 19:03 25.39524 -79.14961 23231 ft 474 kts 112°
2026-05-06 19:04 25.38277 -79.11579 23610 ft 476 kts 112°
2026-05-06 19:04 25.34653 -79.01792 24615 ft 483 kts 112°
2026-05-06 19:05 25.33374 -78.98341 24963 ft 486 kts 112°
2026-05-06 19:05 25.32087 -78.94874 25279 ft 489 kts 112°
2026-05-06 19:05 25.30797 -78.91399 25602 ft 491 kts 112°
2026-05-06 19:05 25.29510 -78.87894 25903 ft 494 kts 112°
2026-05-06 19:06 25.28207 -78.84373 26199 ft 497 kts 112°
2026-05-06 19:06 25.26891 -78.80840 26505 ft 499 kts 112°
2026-05-06 19:06 25.25560 -78.77277 26798 ft 501 kts 112°
2026-05-06 19:06 25.24260 -78.73800 27063 ft 504 kts 112°
2026-05-06 19:07 25.22934 -78.70260 27346 ft 506 kts 112°
2026-05-06 19:07 25.21573 -78.66626 27615 ft 509 kts 112°
2026-05-06 19:07 25.20217 -78.63008 27871 ft 511 kts 112°
2026-05-06 19:07 25.18868 -78.59410 28142 ft 513 kts 112°
2026-05-06 19:08 25.17505 -78.55752 28378 ft 516 kts 112°
2026-05-06 19:08 25.16073 -78.52120 28631 ft 518 kts 115°
2026-05-06 19:08 25.14543 -78.48493 28873 ft 520 kts 115°
2026-05-06 19:08 25.13020 -78.44886 29134 ft 521 kts 115°
2026-05-06 19:09 25.11503 -78.41254 29485 ft 521 kts 115°
2026-05-06 19:09 25.09993 -78.37619 29839 ft 520 kts 115°
2026-05-06 19:09 25.08491 -78.33992 30164 ft 520 kts 115°
2026-05-06 19:09 25.06984 -78.30349 30417 ft 522 kts 115°
2026-05-06 19:10 25.05476 -78.26703 30659 ft 524 kts 115°
2026-05-06 19:10 25.03955 -78.23024 30974 ft 524 kts 115°
2026-05-06 19:10 25.02458 -78.19352 31250 ft 526 kts 115°
2026-05-06 19:10 25.00951 -78.15675 31515 ft 527 kts 115°
2026-05-06 19:11 24.99436 -78.11993 31788 ft 528 kts 115°
2026-05-06 19:11 24.97917 -78.08312 32025 ft 529 kts 115°
2026-05-06 19:11 24.96388 -78.04613 32281 ft 531 kts 115°
2026-05-06 19:11 24.94854 -78.00905 32527 ft 532 kts 115°
2026-05-06 19:12 24.93320 -77.97203 32858 ft 531 kts 115°
2026-05-06 19:12 24.91790 -77.93512 33143 ft 531 kts 115°
2026-05-06 19:12 24.90246 -77.89793 33354 ft 533 kts 115°
2026-05-06 19:12 24.88701 -77.86072 33589 ft 534 kts 115°
2026-05-06 19:13 24.87163 -77.82331 33848 ft 535 kts 115°
2026-05-06 19:13 24.85637 -77.78652 34052 ft 537 kts 115°
2026-05-06 19:13 24.84060 -77.74870 34300 ft 537 kts 115°
2026-05-06 19:13 24.82498 -77.71132 34619 ft 536 kts 115°
2026-05-06 19:14 24.80957 -77.67449 34859 ft 537 kts 115°
2026-05-06 19:14 24.79396 -77.63717 35143 ft 536 kts 115°
2026-05-06 19:14 24.77841 -77.60004 35431 ft 535 kts 115°
2026-05-06 19:14 24.76280 -77.56281 35670 ft 536 kts 115°
2026-05-06 19:15 24.74720 -77.52560 35905 ft 536 kts 116°
2026-05-06 19:15 24.73077 -77.48866 36188 ft 535 kts 117°
2026-05-06 19:15 24.71385 -77.45231 36438 ft 535 kts 118°
2026-05-06 19:15 24.69688 -77.41581 36664 ft 535 kts 118°
2026-05-06 19:16 24.68003 -77.37942 36876 ft 535 kts 118°
2026-05-06 19:16 24.66313 -77.34283 37155 ft 534 kts 118°
2026-05-06 19:16 24.64637 -77.30652 37442 ft 532 kts 118°
2026-05-06 19:16 24.62965 -77.27025 37651 ft 532 kts 117°
2026-05-06 19:17 24.61289 -77.23390 37875 ft 532 kts 118°
2026-05-06 19:17 24.59620 -77.19767 38099 ft 532 kts 117°
2026-05-06 19:17 24.57971 -77.16140 38307 ft 531 kts 117°
2026-05-06 19:17 24.56306 -77.12492 38539 ft 530 kts 117°
2026-05-06 19:18 24.54651 -77.08876 38710 ft 531 kts 117°
2026-05-06 19:18 24.52993 -77.05263 38914 ft 530 kts 117°
2026-05-06 19:18 24.51333 -77.01654 39096 ft 530 kts 117°
2026-05-06 19:19 24.48021 -76.94466 39105 ft 529 kts 118°
2026-05-06 19:19 24.44712 -76.87300 39109 ft 523 kts 118°
2026-05-06 19:20 24.41416 -76.80175 39109 ft 522 kts 118°
2026-05-06 19:20 24.38122 -76.73066 39111 ft 523 kts 118°
2026-05-06 19:21 24.34837 -76.65986 39111 ft 521 kts 118°
2026-05-06 19:21 24.31543 -76.58897 39112 ft 521 kts 118°
2026-05-06 19:22 24.28263 -76.51852 39112 ft 520 kts 118°
2026-05-06 19:22 24.24970 -76.44786 39113 ft 520 kts 118°
2026-05-06 19:23 24.21674 -76.37727 39115 ft 520 kts 118°
2026-05-06 19:24 24.15305 -76.24113 39117 ft 519 kts 118°
2026-05-06 19:24 24.12002 -76.17070 39119 ft 519 kts 118°
2026-05-06 19:25 24.08699 -76.10036 39121 ft 519 kts 118°
2026-05-06 19:25 24.05393 -76.03007 39122 ft 519 kts 118°
2026-05-06 19:26 24.02104 -75.96024 39122 ft 519 kts 118°
2026-05-06 19:26 23.98789 -75.88995 39124 ft 519 kts 118°
2026-05-06 19:27 23.95479 -75.81990 39125 ft 519 kts 118°
2026-05-06 19:27 23.92161 -75.74975 39127 ft 519 kts 118°
2026-05-06 19:28 23.88835 -75.67955 39129 ft 520 kts 118°
2026-05-06 19:28 23.85505 -75.60938 39131 ft 520 kts 118°
2026-05-06 19:29 23.82168 -75.53915 39133 ft 521 kts 118°
2026-05-06 19:29 23.78820 -75.46881 39135 ft 521 kts 118°
2026-05-06 19:30 23.75474 -75.39860 39138 ft 522 kts 118°
2026-05-06 19:30 23.72123 -75.32838 39139 ft 522 kts 118°
2026-05-06 19:31 23.68763 -75.25809 39140 ft 523 kts 118°
2026-05-06 19:31 23.63709 -75.15254 39141 ft 523 kts 118°
2026-05-06 19:32 23.60356 -75.08266 39142 ft 524 kts 118°
2026-05-06 19:32 23.56978 -75.01234 39143 ft 524 kts 118°
2026-05-06 19:33 23.53597 -74.94207 39143 ft 523 kts 118°
2026-05-06 19:33 23.50204 -74.87167 39143 ft 524 kts 118°
2026-05-06 19:34 23.47938 -74.82469 39143 ft 524 kts 118°